Regional Weather Roundup
Issued by NWS

Home | Current Version | Previous Version | Graphics & Text | Print | Product List | Glossary On
Versions: 1 2 3 4 5 6 7 8 9 10 11 12 13 14 15 16 17 18 19 20 21 22 23 24 25 26 27 28 29 30 31 32 33 34 35 36 37 38 39 40 41 42 43 44 45 46 47 48 49 50
817
ASUS43 KFSD 202302
RWRSD

WEATHER ROUNDUP FOR SOUTH DAKOTA
NATIONAL WEATHER SERVICE SIOUX FALLS SD
500 PM CST FRI JAN 20 2017

NOTE: "FAIR" INDICATES FEW OR NO CLOUDS BELOW 12,000 FEET WITH NO
SIGNIFICANT WEATHER AND/OR OBSTRUCTIONS TO VISIBILITY.


SDZ001>005-009-010-012>017-210000-
NORTHWEST AND NORTH CENTRAL SOUTH DAKOTA

CITY           SKY/WX    TMP DP  RH WIND       PRES   REMARKS
BUFFALO          N/A     36  32  85 NW18      29.27S
FAITH            N/A     25  24  96 N8        29.30R WCI  16
MOBRIDGE       CLOUDY    30  26  85 NW5       29.29S FOG     WCI  25
$$

SDZ012>016-024>037-041>051-057-063-072>074-210000-
SOUTHWEST AND SOUTH CENTRAL SOUTH DAKOTA

CITY           SKY/WX    TMP DP  RH WIND       PRES   REMARKS
RAPID CTY ARPT PTCLDY    38  30  73 NW20      29.30F
PIERRE         CLOUDY    19  15  84 NW7       29.32S WCI  10
CUSTER         CLOUDY    37  24  59 CALM      29.31R
ELLSWORTH AFB  CLOUDY    39  32  75 N21       29.29F
PHILIP         PTCLDY    36  31  82 NW7       29.31S
PINE RIDGE     MOCLDY    36  32  85 W6        29.34S
SPEARFISH      FAIR      37  32  81 W14       29.35S
WINNER         FAIR      36  28  73 W6        29.33R
$$

SDZ004>011-016>023-039-040-210000-
NORTHEAST SOUTH DAKOTA

CITY           SKY/WX    TMP DP  RH WIND       PRES   REMARKS
ABERDEEN       CLOUDY    34  30  85 SE6       29.36S WCI  29
WATERTOWN      FOG       35  35 100 SE14      29.38S VSB 1/4 WCI  26
BROOKINGS      FOG       37  36  96 S10       29.40F VSB 3/4
SISSETON         N/A     35  35 100 S13       29.41F WCI  26
$$

SDZ017-020-022-023-036>040-048>070-210000-
SOUTHEAST SOUTH DAKOTA

CITY           SKY/WX    TMP DP  RH WIND       PRES   REMARKS
SIOUX FALLS    FOG       40  40 100 SE10      29.43S VSB 3/4
HURON          CLEAR     43  34  70 S5        29.35R
CHAMBERLAIN    CLEAR     38  32  77 NW5       29.33S
MITCHELL       MOCLDY    46  39  76 S18       29.36R
YANKTON        CLOUDY    41  37  87 SE10      29.41R
$$

ABBREVIATIONS USED IN REMARKS
   TC - TEMPERATURE IN CELSIUS
  WCI - WIND CHILL INDEX
   HX - HEAT INDEX
  VSB - VISIBILITY





USA.gov is the U.S. government's official web portal to all federal, state and local government web resources and services.